Starlink 32865

operational
NORAD ID: 62952 Int'l Des: 2025-029 Owner: SPXS Country: US Constellation: starlink
LEOCIRCULAR

About Starlink 32865

Description loading...

Live Position

Loading 3D Globe...

Upcoming Passes

Altitude History

Altitude vs Time

uPlot chart will show altitude changes over time

Two-Line Element Set

1 62952U 25029E 26035.15261536 .00023597 00000-0 80598-3 0 9996
2 62952 53.1613 28.1799 0002039 90.4092 269.7143 15.30213272 56198
Epoch: Feb 4, 2026 • Age: 8 hours

Current Status

Altitude 475.5 km
Velocity 7.63 km/s
Sub-Earth Point 26.17°N, 98.78°E
Launch Date Feb 11, 2025
Age 0.9 years
Type internet

Technical Details

Classification Payload
Mass 730.00 kg
Dry Mass 700.00 kg
Total Mass 730.00 kg
Length 0.30 m
Diameter 4.10 m
Span 29.00 m
Shape Box + pan
Manufacturer SPXS
Bus Type Starlink V2M
Phase Status In Orbit
Owner/State SPXS/US

Large Constellations

Loading constellations...